This is the latest recevied weather packets stored in our database for station/object DW9280. If no packets are shown the sender has not sent any weather packets the latest 10 day(s).
| Time | Temp. | Humidity | Pressure | Rain* | Wind** | Luminosity | Snow |
|---|---|---|---|---|---|---|---|
| 1787566512 | 20.56° C | 61% | 1022.8 hPa | 0 mm | - | 752 W/m² | - |
| 1787566088 | 20.56° C | 61% | 1022.8 hPa | 0 mm | - | 786 W/m² | - |
| 1787565788 | 20.56° C | 63% | 1022.8 hPa | 0 mm | - | 759 W/m² | - |
| 1787565488 | 19.44° C | 66% | 1022.9 hPa | 0 mm | - | 772 W/m² | - |
| 1787565313 | 18.33° C | 67% | 1022.9 hPa | 0 mm | - | 745 W/m² | - |
| 1787564887 | 18.33° C | 67% | 1023 hPa | 0 mm | - | 155 W/m² | - |
| 1787564710 | 17.78° C | 67% | 1023.1 hPa | 0 mm | - | 130 W/m² | - |
| 1787564287 | 18.33° C | 67% | 1023 hPa | 0 mm | - | 130 W/m² | - |
| 1787563988 | 18.33° C | 65% | 1023 hPa | 0 mm | - | 135 W/m² | - |
| 1787563688 | 18.33° C | 65% | 1023.1 hPa | 0 mm | - | 132 W/m² | - |
| 1787563389 | 18.33° C | 65% | 1023.1 hPa | 0 mm | - | 712 W/m² | - |
| 1787563087 | 18.89° C | 67% | 1023.2 hPa | 0 mm | - | 148 W/m² | - |
| 1787562786 | 18.89° C | 67% | 1023.2 hPa | 0 mm | - | 132 W/m² | - |
| 1787562491 | 18.33° C | 68% | 1023.2 hPa | 0 mm | - | 687 W/m² | - |
| 1787562186 | 18.33° C | 69% | 1023.2 hPa | 0 mm | - | 626 W/m² | - |
| 1787561886 | 18.33° C | 68% | 1023.3 hPa | 0 mm | - | 135 W/m² | - |
| 1787561593 | 18.33° C | 68% | 1023.3 hPa | 0 mm | - | 566 W/m² | - |
| 1787561288 | 18.33° C | 69% | 1023.3 hPa | 0 mm | - | 570 W/m² | - |
| 1787560987 | 18.33° C | 69% | 1023.4 hPa | 0 mm | - | 513 W/m² | - |
| 1787560815 | 18.33° C | 70% | 1023.4 hPa | 0 mm | - | 475 W/m² | - |
| 1787560387 | 18.33° C | 71% | 1023.5 hPa | 0 mm | - | 533 W/m² | - |
| 1787560088 | 18.33° C | 72% | 1023.5 hPa | 0 mm | - | 519 W/m² | - |
| 1787559787 | 17.78° C | 72% | 1023.5 hPa | 0 mm | - | 506 W/m² | - |
| 1787559611 | 17.78° C | 74% | 1023.5 hPa | 0 mm | - | 496 W/m² | - |
| 1787559188 | 17.78° C | 73% | 1023.6 hPa | 0 mm | - | 480 W/m² | - |
* Rain latest hour (hover to see other rain measurements)
** Current wind speed in m/s (hover to see current wind gust speed)